Regional Weather Roundup
Issued by NWS Glasgow, MT

Home | Current Version | Previous Version | Text Only | Print | Product List | Glossary On
Versions: 1 2 3 4 5 6 7 8 9 10 11 12 13 14 15 16 17 18 19 20 21 22 23 24 25 26 27
000
ASUS45 KGGW 071215
RWRGGW
HOURLY REGIONAL WEATHER ROUNDUP FOR NORTHEAST MONTANA
NATIONAL WEATHER SERVICE GLASGOW MONTANA
500 AM MST WED DEC 07 2016

NOTE: "FAIR" INDICATES FEW OR NO CLOUDS BELOW 12,000 FEET WITH NO
SIGNIFICANT WEATHER AND/OR OBSTRUCTIONS TO VISISBILITY.

NORTHEAST MONTANA


CITY           SKY/WX    TMP DP  RH WIND       PRES   REMARKS
GLASGOW        CLEAR     -1  -9  68 NW28G36   30.38R WCI -26
6HR MIN TEMP:  -1; 6HR MAX TEMP:   3;

PLENTYWOOD       N/A     -3  -8  79 NW20        N/A  WCI -26
WOLF POINT     MOCLDY     1  -8  66 W13       30.39R WCI -17
JORDAN           N/A      2  -5  72 NW16G28   30.37R WCI -18
SIDNEY         CLEAR      0  -7  72 NW17      30.34R WCI -21
GLENDIVE       FLURRIES   3  -3  76 NW22      30.31R WCI -19
MALTA            N/A      1  -6  72 W12G22      N/A  WCI -16
SCOBEY           N/A     -5 -16  59 W9        30.26R

FORT PECK REPORTS


CITY           SKY/WX    TMP DP  RH WIND       PRES   REMARKS
FORT PECK        N/A      0  -6  76 W25         N/A  WCI -24
THE PINES        N/A      2  -5  72 W3G16       N/A

SOUTHEAST MONTANA


CITY           SKY/WX    TMP DP  RH WIND       PRES   REMARKS
BILLINGS       PTCLDY     2  -4  76 SE3       30.31R
MILES CITY     CLOUDY     2  -7  66 W16       30.35R WCI -18
BAKER          CLOUDY    -1  -6  79 W20G25    30.25R WCI -23
LIVINGSTON     CLOUDY     2  -7  66 NW9       30.21R

CENTRAL MONTANA


CITY           SKY/WX    TMP DP  RH WIND       PRES   REMARKS
HAVRE          CLOUDY     0  -6  76 W13       30.48R WCI -18
LEWISTOWN      MOCLDY    -9 -12  87 W8        30.31R
GREAT FALLS    CLOUDY    -3  -8  79 W5        30.39R
CUT BANK       CLEAR    -12 -16  82 W6        30.37R
HELENA         CLOUDY     1  -8  66 W9        30.35R
BUTTE          CLOUDY     1  -5  75 NW3       30.13R
BOZEMAN        CLOUDY     4  -1  80 SW7       30.25R

WESTERN MONTANA


CITY           SKY/WX    TMP DP  RH WIND       PRES   REMARKS
MISSOULA       CLOUDY    12  -1  56 SE15      30.33R WCI  -4
KALISPELL      NOT AVBL

NORTH DAKOTA


CITY           SKY/WX    TMP DP  RH WIND       PRES   REMARKS
WILLISTON      MOCLDY    -1  -8  72 W13       30.30R WCI -19
DICKINSON      MIX PCPN   2  -4  76 NW24G33   30.17R WCI -21
MINOT          LGT SNOW   5   0  79 W35G45    30.09R WCI -20
BISMARCK       CLOUDY     6   1  80 NW17G32   30.16R WCI -13

SOUTHERN SASKATCHEWAN


CITY           SKY/WX    TMP DP  RH WIND       PRES   REMARKS
REGINA         PTCLDY    -2  -6  84 NW18      30.27S WCI -24
MOOSE JAW      FLURRIES   1  -6  71 NW20G25   30.33R WCI -20
ESTEVAN        LGT SNOW   0  -4  85 NW25G32   30.19R BLWGSNOWWCI -25
SWIFT CURRENT  LGT SNOW  -8 -11  84 NW22G30   30.31R WCI -33





USA.gov is the U.S. government's official web portal to all federal, state and local government web resources and services.